This is the latest recevied weather packets stored in our database for station/object GW4003. If no packets are shown the sender has not sent any weather packets the latest 10 day(s).
| Time | Temp. | Humidity | Pressure | Rain* | Wind** | Luminosity | Snow |
|---|---|---|---|---|---|---|---|
| 1777982183 | 3.33° C | 87% | 1014.8 hPa | 1.52 mm | - | - | - |
| 1777981880 | 3.33° C | 87% | 1014.8 hPa | 1.78 mm | - | - | - |
| 1777981576 | 3.89° C | 87% | 1014.7 hPa | 1.52 mm | - | - | - |
| 1777981273 | 3.89° C | 87% | 1014.6 hPa | 2.03 mm | - | - | - |
| 1777980970 | 3.89° C | 87% | 1014.5 hPa | 2.03 mm | - | - | - |
| 1777980667 | 4.44° C | 87% | 1014.5 hPa | 1.78 mm | - | - | - |
| 1777980363 | 4.44° C | 87% | 1014.5 hPa | 1.52 mm | - | - | - |
| 1777980060 | 4.44° C | 87% | 1014.4 hPa | 1.27 mm | - | - | - |
| 1777979757 | 4.44° C | 87% | 1014.3 hPa | 1.02 mm | - | - | - |
| 1777979454 | 4.44° C | 87% | 1014.2 hPa | 1.02 mm | - | - | - |
| 1777979151 | 4.44° C | 87% | 1014.2 hPa | 1.27 mm | - | - | - |
| 1777978847 | 4.44° C | 87% | 1014.2 hPa | 1.52 mm | - | - | - |
| 1777978544 | 4.44° C | 87% | 1013.8 hPa | 1.78 mm | - | - | - |
| 1777978240 | 5° C | 87% | 1013.8 hPa | 1.52 mm | - | - | - |
| 1777977936 | 5° C | 87% | 1013.7 hPa | 1.52 mm | - | - | - |
| 1777977633 | 5° C | 87% | 1013.6 hPa | 1.27 mm | - | - | - |
| 1777977330 | 5° C | 87% | 1013.5 hPa | 1.27 mm | - | - | - |
| 1777977026 | 5° C | 87% | 1013.3 hPa | 1.27 mm | - | - | - |
| 1777976723 | 5.56° C | 87% | 1013.4 hPa | 1.02 mm | - | - | - |
| 1777976420 | 5.56° C | 87% | 1013.3 hPa | 1.02 mm | - | - | - |
| 1777976117 | 5.56° C | 87% | 1013.2 hPa | 1.02 mm | - | - | - |
| 1777975813 | 5.56° C | 87% | 1013.1 hPa | 0.76 mm | - | - | - |
| 1777975510 | 6.11° C | 87% | 1013.1 hPa | 0.76 mm | - | - | - |
| 1777975207 | 6.11° C | 87% | 1012.9 hPa | 0.51 mm | - | - | - |
| 1777974904 | 6.11° C | 87% | 1012.8 hPa | 0.25 mm | - | - | - |
* Rain latest hour (hover to see other rain measurements)
** Current wind speed in m/s (hover to see current wind gust speed)